Location: Diati
(11.8376°N, 2.5966°E)
Time: 17:48:03
(UTC+00:00)

Feng Yun 1-1 Rocket - Pass Details

Date: 21 September 2020
Orbit: 830 x 933 km, 99.2° (Epoch: 19 October)

Event Time Altitude Azimuth Distance (km) Brightness Sun altitude
Rises 18:17:23 0° 170° (S) 3,363 7.2 -8.5°
Reaches altitude 10° 18:19:43 10° 172° (S) 2,434 6.5 -9.1°
Maximum altitude 18:25:06 76° 257° (WSW) 864 4.4 -10.4°
Drops below altitude 10° 18:30:34 10° 343° (NNW) 2,475 6.9 -11.7°
Sets 18:32:58 0° 345° (NNW) 3,424 7.6 -12.3°
